Skip Page Navigation
NASA JPL Caltech
NASA Logo - Jet Propulsion Laboratory + View the NASA Portal
+ Center for Near-Earth Object Studies
JPL Home Earth Solar System Stars & Galaxies Technology
JPL Solar System Dynamics
BODIES ORBITS EPHEMERIDES TOOLS PHYSICAL DATA DISCOVERY FAQ SITE MAP
IMPORTANT: The SSD Announcement email list is now available. Major changes are coming in the near future, including possible hostname and/or URL changes. To be notified of such changes, subscribe to this email list.

Please visit this page for more details.


JPL Small-Body Database Browser
Search: [ help ]  
392134 (2009 FR75)
Classification: Main-belt Asteroid          SPK-ID: 2392134
Ephemeris | Orbit Diagram | Orbital Elements | Mission Design | Physical Parameters | Discovery Circumstances | Close-Approach Data ]

[ show orbit diagram ]
Orbital Elements at Epoch 2458600.5 (2019-Apr-27.0) TDB
Reference: JPL 11 (heliocentric ecliptic J2000)
 Element Value Uncertainty (1-sigma)   Units 
e .1788584322563956 6.7715e-08  
a 3.129350395452612 6.3305e-08 au
q 2.569639689741026 2.1818e-07 au
i 2.558406539867732 6.9415e-06 deg
node 225.6835544526296 0.00017853 deg
peri 262.4445510499058 0.0001796 deg
M 352.647687515319 2.3089e-05 deg
tp 2458641.795352176416
(2019-Jun-07.29535218)
0.00013041 TDB
period 2021.993327199405
5.54
6.1356e-05
1.68e-07
d
yr
n .1780421305834 5.4025e-09 deg/d
Q 3.689061101164197 7.4627e-08 au
  Orbit Determination Parameters
   # obs. used (total)      152  
   data-arc span      6280 days (17.19 yr)  
   first obs. used      2001-10-21  
   last obs. used      2018-12-31  
   planetary ephem.      DE431  
   SB-pert. ephem.      SB431-N16  
   condition code      0  
   norm. resid. RMS      .64265  
   source      ORB  
   producer      Otto Matic  
   solution date      2019-Jul-14 15:27:25  

Additional Information
 Earth MOID = 1.58666 au 
 Jupiter MOID = 1.39896 au 
 T_jup = 3.187 
[ show covariance matrix ]

Ephemeris | Orbit Diagram | Orbital Elements | Mission Design | Physical Parameters | Discovery Circumstances | Close-Approach Data ]

Physical Parameter Table
Parameter Symbol Value Units Sigma Reference Notes
absolute magnitude H 16.2   n/a MPO418999  

392134 (2009 FR75)          Discovered 2006-Sep-26 by Mt. Lemmon Survey at Mount Lemmon
Reference: Last Updated: 2014-04-17

[ show close-approach data ]
Alternate Designations
 2009 FR75 = 2014 DN30 
Ephemeris | Orbit Diagram | Orbital Elements | Mission Design | Physical Parameters | Discovery Circumstances | Close-Approach Data ]
ABOUT SSD CREDITS/AWARDS PRIVACY/COPYRIGHT GLOSSARY LINKS
FirstGov
(server date/time)  
NASA Home Page
Site Manager:   Ryan S. Park
Webmaster  Alan B. Chamberlin